User: anonymous   Login
Location: Unspecified
(52.1384°N, 8.6525°W)
Time: 00:14:21
(UTC+00:00)
Language:

SPROUT - Orbit

View from above orbital plane
View from above orbital plane
View from above satellite
View from above satellite

Ground track
Ground track

The orbit data is extracted from the following two-line orbital elements,

1 39770U 14029E   21023.79241155  .00000498  00000-0  60096-4 0  9990
2 39770  97.9063 135.3400 0008294 330.2319  29.8423 14.88135903361822
Epoch (UTC): 23 January 2021 19:01:04
Eccentricity: 0.0008294
inclination: 97.9063°
perigee height: 598 km
apogee height: 609 km
right ascension of ascending node: 135.3400°
argument of perigee: 330.2319°
revolutions per day: 14.88135903
mean anomaly at epoch: 29.8423°
orbit number at epoch: 36182

The dashed part of the orbit path shows where the satellite is in the earth's shadow,  

DLR